Theta_e
348 348 349 349 349 348 347 348 346 345 347 346 344 346 348 349 350 348 347 347 346 344 344 346 346 345 344 344 345 346 349 349 348 347 346 344 342 342 344 345 347 350
348 348 348 347 348 348 346 346 345 345 348 347 345 347 349 350 351 349 349 348 347 346 345 345 345 343 343 343 343 344 345 346 345 345 345 344 343 342 343 345 348 349
346 348 347 344 345 348 348 348 347 348 349 349 349 348 349 350 351 350 349 349 349 348 347 346 345 344 344 342 343 343 343 343 344 344 344 343 343 343 344 346 349 350
344 346 345 343 346 349 350 351 351 351 352 352 351 349 348 349 350 349 350 350 350 349 348 347 346 345 344 343 342 344 343 343 344 343 342 343 344 344 344 346 351 353
343 345 345 344 348 350 351 353 353 353 352 351 350 350 349 349 348 348 348 348 349 349 348 348 347 346 346 344 343 343 344 342 343 343 342 343 343 343 343 345 350 354
341 344 344 346 351 352 351 353 354 353 352 350 349 349 350 350 349 350 349 347 347 347 346 347 348 348 347 345 344 344 344 344 343 343 343 343 343 342 342 342 346 352
340 342 343 345 352 355 354 353 353 352 351 351 349 347 348 351 351 350 349 348 347 347 346 346 348 350 348 346 344 345 345 344 344 346 345 345 346 345 344 344 347 352
341 342 341 344 351 355 355 355 353 351 351 352 351 347 347 349 351 350 349 350 349 349 348 347 348 351 349 346 346 347 346 344 345 347 347 347 347 346 345 346 348 351
347 345 341 343 350 354 354 353 352 351 352 353 352 349 347 348 349 350 350 351 350 351 351 350 349 351 351 348 348 349 348 347 346 346 347 347 346 344 343 345 347 349
352 351 346 343 346 351 352 351 351 352 352 353 353 351 349 348 349 349 350 349 349 351 352 352 350 351 352 351 349 349 351 350 350 348 347 348 347 346 345 345 346 348
353 353 353 349 348 351 352 351 351 352 352 353 353 353 350 349 349 349 349 348 348 350 352 352 352 351 352 351 350 350 352 352 351 351 349 348 349 351 350 350 352 353
352 353 354 354 352 352 352 351 351 352 352 352 352 352 352 350 350 349 350 349 348 349 350 351 351 351 350 351 351 353 354 353 353 354 353 351 351 353 353 353 353 353
351 352 352 352 352 352 352 351 350 350 350 350 350 351 352 351 350 350 351 350 349 349 348 349 350 350 350 350 352 354 354 354 353 355 355 353 352 351 351 350 350 350
351 351 351 351 351 352 351 351 349 349 349 349 349 350 350 350 351 351 350 351 350 350 350 350 350 350 350 349 350 353 354 353 353 354 355 354 353 352 351 351 351 352
350 350 350 351 351 350 350 350 349 349 348 348 348 348 349 350 350 349 348 349 349 350 350 350 351 352 352 351 351 352 353 353 353 354 355 355 354 354 354 353 353 353
352 352 351 351 351 351 351 351 350 349 349 348 348 348 350 350 350 350 349 349 349 350 350 351 352 352 353 353 353 353 353 352 352 353 354 355 354 354 354 354 353 353
352 353 352 351 352 352 352 351 350 349 350 349 348 348 350 351 351 350 350 350 350 351 351 352 352 351 350 351 353 354 354 353 352 352 352 353 354 353 353 352 351 351
349 350 349 350 351 351 352 352 351 351 351 351 349 349 350 350 350 350 350 350 350 351 352 352 352 351 349 350 352 353 353 353 353 351 351 351 352 351 350 348 349 349
350 349 349 349 349 350 352 352 352 351 351 351 351 351 351 351 349 350 350 349 349 350 351 351 350 350 349 349 352 352 351 351 351 351 349 347 348 349 347 347 347 348
352 351 350 349 348 350 353 353 352 351 350 350 350 351 352 353 351 350 350 350 350 349 350 350 349 349 349 349 351 351 350 349 349 350 349 347 346 346 345 344 346 347
348 348 348 348 349 350 354 355 353 352 352 351 350 350 351 352 352 351 351 351 350 349 349 350 349 349 349 350 350 350 350 349 347 348 349 348 346 346 344 343 344 345
346 346 346 347 348 349 351 352 353 354 354 354 353 351 350 350 350 350 350 351 351 350 350 352 351 351 351 351 349 349 348 348 346 346 347 347 347 347 345 344 343 343
350 349 349 348 348 348 349 349 349 350 352 353 353 352 351 351 351 349 348 349 350 350 351 352 352 352 352 352 351 348 345 346 346 345 345 346 347 346 346 346 344 342
350 350 350 350 350 350 350 350 350 349 349 349 350 350 350 350 350 350 348 347 347 347 348 349 349 350 350 351 349 347 345 345 346 346 345 346 346 346 347 347 346 342
346 347 348 348 348 349 349 349 349 350 350 349 349 349 349 348 347 347 346 345 344 344 344 345 347 349 350 350 349 346 345 346 347 348 347 347 348 349 348 347 346 346
342 343 344 345 345 346 347 347 348 349 350 350 350 350 349 349 348 347 346 346 346 346 346 347 348 349 350 350 348 347 345 345 347 349 349 349 349 347 346 346 347 348
Wind_Speed
21 18 17 18 17 16 16 16 14 12 12 13 12 12 11 10 11 10 10 10 10 9 8 8 7 8 8 8 8 8 8 7 6 6 6 6 7 7 8 7 6 5
23 19 17 18 18 16 15 15 14 12 12 12 12 12 12 10 11 10 10 11 11 10 9 8 8 9 9 9 9 9 10 9 7 7 8 8 7 8 8 7 7 6
24 22 19 17 16 15 14 14 13 12 12 12 12 13 13 11 11 11 10 11 11 10 9 9 9 9 9 9 10 10 9 9 8 8 8 8 8 8 8 8 8 7
23 23 21 18 17 16 15 14 13 12 13 13 13 13 13 12 12 12 12 12 11 9 9 9 10 10 10 10 9 9 9 8 8 9 8 7 7 8 9 9 8 7
22 21 20 18 17 16 15 15 14 14 14 14 14 14 13 12 12 12 13 12 10 10 9 9 10 10 10 10 9 8 8 7 8 9 8 7 7 8 9 9 9 8
22 21 20 19 17 15 15 16 16 15 14 14 14 14 13 12 11 12 12 11 11 11 10 9 10 10 10 10 9 9 8 8 8 8 8 7 7 7 8 9 10 8
22 22 21 20 19 17 16 16 16 16 15 14 14 14 14 13 12 12 11 11 12 12 11 10 10 9 9 10 9 9 9 9 8 8 7 6 7 7 7 9 9 8
20 21 21 21 20 19 19 17 16 16 15 14 14 15 15 14 13 12 11 11 12 12 11 11 11 10 9 10 10 9 9 9 9 9 7 6 7 7 7 8 9 8
19 20 21 22 22 20 20 18 16 16 16 15 14 13 14 14 14 13 13 13 14 12 12 12 12 11 11 10 10 9 9 9 10 10 8 7 7 7 6 8 8 9
18 19 19 21 23 21 20 18 16 15 16 16 15 14 14 14 15 15 15 15 14 13 14 14 13 12 12 12 11 10 10 9 9 9 9 8 7 7 7 8 8 8
19 18 17 18 20 20 19 17 16 15 15 15 15 15 14 14 16 16 17 16 14 14 15 15 14 14 14 13 12 11 10 10 9 10 10 9 8 8 7 7 7 8
19 18 18 17 17 19 19 18 18 17 17 16 16 14 13 14 14 15 16 16 15 15 16 16 15 15 14 13 12 11 11 11 10 10 10 9 9 9 8 8 9 10
19 18 18 17 16 17 17 17 17 18 19 19 17 16 15 14 13 13 15 16 15 15 16 16 16 16 15 14 14 13 13 13 13 12 11 10 10 10 10 10 10 10
21 20 19 18 17 17 17 17 17 17 19 20 19 18 17 15 14 13 14 15 15 15 15 15 15 15 15 15 15 15 14 14 14 14 14 13 11 11 10 10 9 9
23 23 21 19 18 18 18 19 19 18 19 20 20 19 18 17 15 14 14 15 15 15 14 15 15 15 15 16 15 15 14 14 13 13 14 14 13 12 11 10 9 9
21 22 22 21 19 19 20 22 22 20 19 20 19 17 17 18 16 14 14 15 15 15 14 14 16 16 15 15 15 15 15 14 14 14 14 13 12 12 12 12 11 10
18 19 23 24 22 20 20 22 23 22 20 21 19 17 17 19 17 17 17 17 17 17 17 17 18 16 14 14 14 14 15 14 13 12 11 11 11 12 12 12 11 10
22 22 26 27 26 24 23 23 24 24 23 22 20 18 19 20 20 20 20 20 20 20 20 20 21 18 16 15 14 14 15 15 12 10 9 10 10 9 9 9 9 10
26 26 28 28 27 27 26 26 27 28 27 25 23 21 19 19 20 22 22 21 22 23 23 22 22 20 17 17 16 16 15 16 14 11 10 10 9 8 8 9 9 9
24 26 27 25 25 26 27 27 29 29 29 29 28 26 23 19 19 20 21 21 22 23 23 22 21 20 18 17 18 18 17 16 15 14 14 13 12 12 13 13 12 11
24 25 25 24 23 25 26 27 28 29 29 30 30 29 27 24 20 19 19 19 21 21 21 20 20 19 18 19 19 20 20 19 17 16 17 18 17 16 16 16 16 16
24 25 25 25 25 26 26 27 28 29 29 29 29 29 28 27 25 23 21 20 19 20 21 21 21 20 21 22 21 20 20 20 19 20 21 20 20 20 18 17 18 19
20 21 22 24 26 26 26 27 29 30 30 30 29 28 28 28 28 27 26 25 23 23 23 23 23 23 25 25 24 22 21 19 19 21 22 22 22 22 20 19 18 19
16 18 19 19 20 21 22 22 24 26 28 28 29 29 29 30 30 30 30 29 28 27 27 27 27 27 27 27 25 23 22 21 20 20 21 21 22 21 21 20 19 19
8 10 12 14 15 16 18 19 20 21 22 23 24 25 26 27 29 30 31 31 30 31 31 31 31 31 30 29 26 23 22 22 21 21 21 21 21 21 21 20 20 19
2 1 3 6 9 10 12 15 17 18 18 18 19 20 21 21 22 24 26 27 28 29 31 31 31 31 30 30 28 25 23 23 23 23 23 22 22 22 21 20 20 20
Wind_Direction
188 187 185 185 188 190 190 191 195 195 193 197 201 199 201 195 190 202 210 206 209 215 224 226 219 218 217 217 224 227 227 225 231 238 234 232 221 211 217 216 204 204
187 189 187 186 189 191 192 193 197 199 196 200 202 201 203 202 200 211 217 211 212 215 221 226 224 219 216 218 222 225 228 229 234 243 243 241 229 222 230 225 210 209
188 190 191 190 186 187 189 192 196 198 199 201 202 204 206 207 210 216 216 214 215 215 216 220 223 223 223 224 224 226 231 231 234 243 244 240 235 234 238 230 220 219
192 192 195 193 187 187 188 191 194 194 197 202 202 203 207 210 214 217 217 216 216 218 218 219 221 224 228 229 228 231 236 232 235 245 247 242 243 245 237 229 226 225
197 196 196 193 191 193 192 192 197 199 202 207 203 202 208 213 215 218 221 219 219 226 228 223 222 225 228 230 229 232 238 238 237 247 253 248 249 246 232 225 223 223
200 200 198 193 192 198 197 194 201 209 211 211 208 207 212 216 215 217 223 222 223 230 233 229 229 231 232 234 235 234 237 241 239 243 247 243 243 242 233 226 221 225
199 200 201 195 190 200 206 202 208 215 216 213 212 212 214 218 217 215 221 223 221 224 229 232 233 235 234 235 237 235 236 243 242 242 245 240 235 237 236 230 221 228
200 200 203 197 190 199 210 212 214 218 217 213 213 214 214 216 217 219 222 222 220 219 221 228 231 231 232 232 232 230 233 242 243 245 252 251 244 242 239 238 234 239
204 201 203 200 196 200 210 211 210 212 212 209 215 223 223 220 220 223 224 222 221 220 218 222 225 226 230 232 231 229 231 236 242 250 255 250 248 252 252 250 250 251
208 207 205 203 200 202 208 210 208 210 211 209 218 231 232 226 224 226 228 226 222 221 223 225 224 224 228 232 235 237 236 237 244 255 260 253 250 258 259 252 253 259
207 207 206 206 202 201 205 209 211 217 222 219 221 230 233 229 225 227 232 231 225 224 229 232 232 229 229 232 236 240 243 246 247 252 260 263 259 260 261 259 263 269
205 204 206 208 205 204 206 208 210 217 228 232 231 233 235 235 231 228 232 234 231 231 233 234 236 235 234 234 236 239 244 249 250 251 257 261 259 258 260 264 269 271
202 203 207 212 211 207 208 211 212 215 225 234 239 239 237 241 244 238 236 237 233 233 236 235 234 235 235 234 234 237 240 243 246 250 255 258 257 257 260 263 266 268
201 201 205 211 214 212 211 213 216 219 223 231 238 242 241 244 247 245 245 244 236 234 238 239 238 239 237 235 236 238 240 242 244 247 251 257 259 259 260 263 263 261
203 204 205 205 209 213 213 214 216 218 221 226 232 238 244 246 247 249 252 251 245 241 238 237 240 243 240 239 241 242 241 240 240 241 245 251 258 260 260 260 260 258
202 203 206 205 206 211 215 215 217 217 219 223 223 227 234 237 240 246 248 247 246 244 239 237 241 245 243 241 243 246 245 242 239 240 243 250 258 263 263 261 260 259
215 207 207 208 208 213 217 218 219 221 223 226 223 220 221 224 229 237 239 239 238 237 238 238 241 246 247 242 240 243 246 246 243 243 246 252 259 264 268 268 269 272
227 220 215 214 213 214 220 222 222 223 224 226 225 222 220 223 227 232 234 235 234 233 234 238 243 245 243 239 235 235 240 242 241 242 250 255 257 266 280 286 288 289
224 224 222 222 219 218 221 225 226 226 226 225 224 223 222 225 228 230 232 233 232 230 230 236 243 243 237 234 234 234 235 235 234 237 248 256 254 259 271 281 287 286
222 225 226 228 227 224 225 227 229 230 229 228 227 226 225 226 228 230 233 235 234 231 231 235 240 239 233 231 233 233 231 228 228 229 238 245 245 245 251 256 262 268
225 228 230 230 229 228 228 230 232 233 233 232 231 230 229 229 229 230 233 236 237 236 238 241 242 239 234 232 235 237 234 230 229 228 230 236 238 240 247 251 252 256
230 233 234 235 234 234 233 234 235 235 234 233 232 233 234 234 234 235 235 235 236 235 236 240 242 240 238 236 238 239 233 229 233 233 231 233 235 238 247 255 256 253
226 230 234 237 239 240 240 239 240 240 239 237 236 236 237 236 235 236 236 236 237 238 238 239 241 243 243 243 242 240 235 232 235 234 230 230 233 239 249 260 266 260
222 225 229 232 236 241 242 242 243 244 244 245 245 244 243 241 240 240 240 241 242 245 246 245 245 246 247 246 244 239 236 235 234 232 229 228 233 243 254 265 272 269
221 223 226 229 235 240 241 242 244 245 245 245 245 246 247 247 247 248 249 249 249 248 249 247 246 246 245 244 242 236 232 230 229 229 232 234 239 249 258 266 271 273
106 115 215 225 234 238 239 242 244 245 244 242 241 244 246 245 245 246 248 250 250 248 247 246 244 243 243 242 237 230 227 228 228 229 234 242 249 255 261 267 271 272